This is the latest recevied weather packets stored in our database for station/object EI4HQ. If no packets are shown the sender has not sent any weather packets the latest 10 day(s).
| Time | Temp. | Humidity | Pressure | Rain* | Wind** | Luminosity | Snow |
|---|---|---|---|---|---|---|---|
| 1777551483 | 10° C | 89% | 1016.9 hPa | 1.52 mm | - | - | - |
| 1777550943 | 10° C | 89% | 1016.9 hPa | 1.78 mm | - | - | - |
| 1777550403 | 10° C | 89% | 1016.8 hPa | 2.03 mm | - | - | - |
| 1777550043 | 10° C | 89% | 1016.8 hPa | 2.29 mm | - | - | - |
| 1777549503 | 10° C | 89% | 1016.8 hPa | 2.03 mm | - | - | - |
| 1777548963 | 10° C | 89% | 1016.8 hPa | 2.03 mm | - | - | - |
| 1777548423 | 10° C | 88% | 1016.6 hPa | 1.52 mm | - | - | - |
| 1777547883 | 10° C | 88% | 1016.9 hPa | 1.02 mm | - | - | - |
| 1777547343 | 10° C | 88% | 1016.9 hPa | 1.27 mm | - | - | - |
| 1777546803 | 10° C | 88% | 1017 hPa | 1.52 mm | - | - | - |
| 1777546443 | 10° C | 88% | 1017.1 hPa | 2.54 mm | - | - | - |
| 1777545903 | 10° C | 88% | 1017 hPa | 3.3 mm | - | - | - |
| 1777545363 | 10° C | 88% | 1016.9 hPa | 3.3 mm | - | - | - |
| 1777544823 | 10° C | 88% | 1016.9 hPa | 3.3 mm | - | - | - |
| 1777544283 | 9.44° C | 88% | 1017 hPa | 3.3 mm | - | - | - |
| 1777543743 | 9.44° C | 88% | 1016.8 hPa | 2.54 mm | - | - | - |
| 1777543203 | 9.44° C | 88% | 1017 hPa | 2.29 mm | - | - | - |
| 1777542843 | 9.44° C | 88% | 1017.1 hPa | 1.27 mm | - | - | - |
| 1777542303 | 9.44° C | 88% | 1017 hPa | 0.51 mm | - | - | - |
| 1777541763 | 9.44° C | 88% | 1016.9 hPa | 0.51 mm | - | - | - |
| 1777541223 | 9.44° C | 88% | 1016.9 hPa | 0.51 mm | - | - | - |
| 1777540683 | 9.44° C | 87% | 1016.8 hPa | 0.51 mm | - | - | - |
| 1777540143 | 9.44° C | 88% | 1016.7 hPa | 0.51 mm | - | - | - |
| 1777539603 | 9.44° C | 88% | 1016.7 hPa | 0.51 mm | - | - | - |
| 1777539243 | 9.44° C | 88% | 1016.6 hPa | 1.02 mm | - | - | - |
* Rain latest hour (hover to see other rain measurements)
** Current wind speed in m/s (hover to see current wind gust speed)